Location: Unspecified
(0.0000°N, 0.0000°E)
Time: 19:00:24
(UTC+00:00)

Vanguard 2 Rocket - Pass Details

Date: 21 January 2020
Orbit: 554 x 3327 km, 32.9° (Epoch: 20 February)

Event Time Altitude Azimuth Distance (km) Brightness Sun altitude
Rises 23:18:42 0° 215° (SW) 4,766 10.9 -66.3°
Enters shadow 23:20:54 - 209° (SSW) 4,078 10.5 -66.6°
Reaches altitude 10° 23:24:01 10° 195° (SSW) 3,167 - -67.0°
Maximum altitude 23:28:04 15° 162° (SSE) 2,352 - -67.5°
Drops below altitude 10° 23:31:16 10° 126° (SE) 2,383 - -67.9°
Sets 23:34:21 0° 101° (ESE) 3,031 - -68.2°
